2020/12/23 23:26:11+0000,-38.88,-49.01,-33.29,-47.72,-54.55,-55.01
2020/12/23 23:27:03+0000,-39.18,-49,-33.77,-50.13,-54.36,-55.02
2020/12/23 23:27:55+0000,-39.58,-49.39,-34.08,-48.63,-53.73,-55.51
2020/12/23 23:28:47+0000,-40.09,-49.54,-33.43,-49.05,-54.32,-55.3
2020/12/23 23:29:39+0000,-39.42,-48.63,-33.47,-50.26,-54.51,-54.82
2020/12/23 23:30:32+0000,-39.48,-49.15,-33.1,-47.44,-54.5,-55.03
2020/12/23 23:31:32+0000,-39.82,-49.55,-33.22,-49.95,-55.43,-55.39
2020/12/23 23:32:24+0000,-39.3,-49.37,-33.72,-51.02,-55.35,-55.14
2020/12/23 23:33:16+0000,-39.93,-48.47,-33.21,-49.48,-53.79,-55.28
2020/12/23 23:34:08+0000,-39.62,-49.15,-33.09,-48.14,-54.14,-55.32
2020/12/23 23:35:00+0000,-40.01,-48.89,-33.54,-49.4,-54.25,-55.33
2020/12/23 23:35:52+0000,-39.49,-50.21,-33.24,-50.25,-54.18,-55.94
2020/12/23 23:36:44+0000,-39.82,-45.88,-33.34,-50.39,-53.94,-54.57
2020/12/23 23:37:36+0000,-39.43,-49.85,-33.35,-44.03,-52.93,-55.32
2020/12/23 23:38:28+0000,-39.75,-48.81,-33.72,-50.64,-54.84,-55.14
2020/12/23 23:39:20+0000,-40.11,-45.71,-33.59,-51.57,-54.01,-54.79
2020/12/23 23:40:12+0000,-39.13,-49.33,-33.85,-50.05,-53.05,-54.66
2020/12/23 23:41:13+0000,-40.65,-49.33,-33.84,-46.65,-55.5,-55.12
2020/12/23 23:42:05+0000,-40.93,-49.32,-33.29,-51.62,-55.48,-55.28
2020/12/23 23:42:57+0000,-40.43,-48.58,-33.72,-50.78,-55.6,-55.1
2020/12/23 23:43:49+0000,-41.29,-48.82,-33.07,-51.36,-54.26,-54.95
2020/12/23 23:44:41+0000,-40.44,-48.98,-33.33,-49.89,-54.26,-55.04
2020/12/23 23:45:33+0000,-41.31,-48.63,-33.5,-49.33,-54.83,-55.08
2020/12/23 23:46:25+0000,-41.7,-49.18,-32.8,-50.69,-55.38,-55.18
2020/12/23 23:47:17+0000,-42.06,-48.62,-34.09,-47.81,-55.24,-56.12
2020/12/23 23:48:09+0000,-41.55,-48.87,-33.17,-46.75,-55.81,-55.17
2020/12/23 23:49:01+0000,-41.31,-49.78,-33.56,-50.56,-55.82,-55.4
2020/12/23 23:49:54+0000,-40.53,-49.15,-30.75,-49.52,-55.95,-55.22
2020/12/23 23:50:46+0000,-40.9,-49.66,-33.32,-50.24,-54.73,-55.48
2020/12/23 23:51:46+0000,-41.31,-49.34,-33.73,-48.17,-55.31,-54.91
2020/12/23 23:52:38+0000,-41.04,-50.56,-33.93,-49.03,-55.36,-55.14
2020/12/23 23:53:30+0000,-41.09,-48.87,-33.02,-49.42,-55.38,-55.09
2020/12/23 23:54:22+0000,-40.71,-49.88,-33.51,-48.55,-55.58,-55.55
2020/12/23 23:55:14+0000,-40.96,-49.49,-33.46,-47.86,-56.04,-54.61
2020/12/23 23:56:06+0000,-40.95,-50.28,-32.73,-51.63,-55.5,-55.09
2020/12/23 23:56:58+0000,-41.77,-49.53,-33.56,-50.42,-55.84,-55.47
2020/12/23 23:57:50+0000,-41.42,-47.87,-33.57,-51.95,-53.5,-54.82
2020/12/23 23:58:42+0000,-40.96,-48.46,-33.29,-50.23,-55.7,-54.7
2020/12/23 23:59:34+0000,-40.68,-48.51,-32.72,-52.09,-55.35,-55.19
2020/12/24 00:00:26+0000,-41.06,-49.5,-33.28,-50.39,-55.56,-55.53
2020/12/24 00:01:31+0000,-39.56,-48.77,-33.49,-51.22,-55.98,-55.47
2020/12/24 00:02:23+0000,-39.91,-48.6,-33.09,-49.59,-56.48,-54.82
2020/12/24 00:03:16+0000,-40,-47.92,-33.87,-50.3,-55.33,-54.98
2020/12/24 00:04:08+0000,-39.97,-47.59,-33.64,-50.47,-55.43,-55.29
2020/12/24 00:05:00+0000,-40.11,-48.57,-32.99,-51.05,-54.73,-55.41
2020/12/24 00:05:52+0000,-39.86,-50.23,-33.65,-51.14,-55.54,-55.88
2020/12/24 00:06:44+0000,-40.39,-48.6,-33.17,-51.5,-56.26,-54.88
2020/12/24 00:07:36+0000,-39.94,-49.34,-32.61,-52.17,-55.46,-54.68
2020/12/24 00:08:28+0000,-39.86,-49.2,-33.01,-50.83,-54.95,-55.2
2020/12/24 00:09:20+0000,-40.04,-49.12,-33.27,-51.66,-55.27,-54.59
2020/12/24 00:10:12+0000,-40.16,-46.94,-33.2,-51.77,-55.29,-55.2
2020/12/24 00:11:18+0000,-40.43,-47.21,-33.31,-51.51,-56.06,-55.34
2020/12/24 00:12:10+0000,-40.2,-49.33,-32.74,-52.41,-55.51,-55.87
2020/12/24 00:13:02+0000,-40.16,-50.02,-33.19,-52.51,-55.93,-54.99
2020/12/24 00:13:54+0000,-39.39,-50.21,-33.71,-52,-54.63,-55.5
2020/12/24 00:14:46+0000,-39.62,-48.86,-33.54,-51.8,-55.91,-55.36
2020/12/24 00:15:38+0000,-39.98,-48.52,-32.68,-49.99,-55.74,-55.74
2020/12/24 00:16:30+0000,-39.93,-50.01,-33.39,-50.8,-55.93,-55.7
2020/12/24 00:17:22+0000,-39.24,-50.19,-33.11,-52.25,-55.8,-55.2
2020/12/24 00:18:14+0000,-39.11,-46.62,-33.35,-51.01,-55.4,-54.56
2020/12/24 00:19:06+0000,-39.81,-50.58,-33.48,-52.16,-55.88,-54.97
2020/12/24 00:19:59+0000,-39.92,-49.41,-33.22,-49.86,-55.81,-55.09
2020/12/24 00:20:51+0000,-39.81,-50.24,-33.38,-51.89,-55.84,-55.84
2020/12/24 00:21:49+0000,-40.23,-48.26,-33.5,-52.16,-56.25,-55.61
2020/12/24 00:22:41+0000,-40.62,-50.55,-33.69,-52.1,-55.73,-55.4
2020/12/24 00:23:34+0000,-40.86,-47.2,-33.62,-52.09,-55.93,-55.74
2020/12/24 00:24:26+0000,-39.52,-49.13,-33.17,-52.04,-56.08,-55.47
2020/12/24 00:25:18+0000,-40.18,-49.67,-33.81,-51.99,-55.92,-55.72
2020/12/24 00:26:10+0000,-41.27,-49.56,-33.49,-51.51,-55.96,-55.67
2020/12/24 00:27:02+0000,-39.81,-50.07,-33.64,-51.27,-55.48,-55.63
2020/12/24 00:27:54+0000,-40.51,-49.48,-33.49,-51.75,-55.33,-55.67
2020/12/24 00:28:46+0000,-40.49,-49.14,-33.85,-51.16,-55.96,-55.43
2020/12/24 00:29:38+0000,-40.79,-49.74,-33.68,-51.72,-55.99,-55.38
2020/12/24 00:30:30+0000,-39.2,-49.49,-33.33,-51.47,-56.24,-55.68
2020/12/24 00:31:28+0000,-40.07,-47.37,-33.26,-51.67,-54.91,-55.72
2020/12/24 00:32:20+0000,-40.39,-49.29,-33.69,-52.15,-56.3,-55.53
2020/12/24 00:33:12+0000,-41.33,-49.22,-33.58,-51.31,-56.19,-54.74
2020/12/24 00:34:04+0000,-39.95,-47.29,-32.95,-52.4,-55.13,-54.83
2020/12/24 00:34:56+0000,-40.12,-48.56,-33.6,-51.22,-55.86,-55.22
2020/12/24 00:35:48+0000,-38.53,-49.83,-33.66,-51.52,-55.84,-56.14
2020/12/24 00:36:40+0000,-39.3,-49.74,-33.41,-50.78,-56.56,-55.79
2020/12/24 00:37:32+0000,-40.45,-49.85,-33.53,-51.84,-55.74,-55.82
2020/12/24 00:38:24+0000,-40.57,-49.07,-34.1,-51.15,-55.38,-55.1
2020/12/24 00:39:16+0000,-40.22,-48.68,-33.89,-50.48,-55.75,-54.79
2020/12/24 00:40:09+0000,-38.25,-49.43,-33.3,-50.79,-55.95,-55.42
2020/12/24 00:41:08+0000,-39.82,-49.73,-33.51,-51.13,-55.59,-55.07
2020/12/24 00:42:01+0000,-39.3,-49.12,-33.92,-51.6,-56.06,-55.94
2020/12/24 00:42:53+0000,-40.18,-49.69,-33.57,-52.16,-55.65,-55.62
2020/12/24 00:43:45+0000,-39.75,-48.45,-33.37,-51.13,-55.1,-55.16
2020/12/24 00:44:37+0000,-39.72,-50.15,-33.65,-50.7,-55.98,-55.58
2020/12/24 00:45:29+0000,-39.94,-48.96,-33.56,-52.34,-56.34,-55.56
2020/12/24 00:46:21+0000,-38.99,-49.07,-33.25,-51.99,-56.45,-55.78
2020/12/24 00:47:13+0000,-40.15,-48.04,-33.45,-50.32,-55.58,-55.74
2020/12/24 00:48:05+0000,-39.24,-47.4,-33.35,-51.94,-56.13,-55.49
2020/12/24 00:48:57+0000,-41.3,-47.36,-32.92,-51.89,-56.16,-56.04
2020/12/24 00:49:49+0000,-40.31,-45.37,-33.91,-52.06,-55.96,-55.27
2020/12/24 00:50:41+0000,-40.04,-46.98,-34.42,-51.73,-55.85,-55.26
2020/12/24 00:51:46+0000,-39.87,-49.4,-33.48,-51.51,-56.32,-55.62
2020/12/24 00:52:38+0000,-39.63,-50.22,-33.9,-52.22,-56.12,-55.93
2020/12/24 00:53:30+0000,-40.48,-48.7,-33.46,-52.19,-55.39,-55.52
2020/12/24 00:54:22+0000,-39.73,-50.2,-33.62,-51.9,-55.79,-55.53
2020/12/24 00:55:14+0000,-40.65,-49.61,-34.59,-51.14,-56.41,-55.18
2020/12/24 00:56:06+0000,-39.54,-49.36,-34.72,-52,-56.24,-55.89
2020/12/24 00:56:58+0000,-39.33,-48.91,-34.59,-52.01,-55.92,-55.42
2020/12/24 00:57:50+0000,-39.65,-47.54,-34.16,-52.37,-55.63,-55.67
2020/12/24 00:58:42+0000,-39.16,-48.48,-34.19,-51.73,-56.03,-55.35
2020/12/24 00:59:34+0000,-39.42,-49.26,-34.39,-52.47,-55.63,-55.38
2020/12/24 01:00:27+0000,-40.49,-48.91,-34.06,-52.75,-56.21,-55.57
2020/12/24 01:01:37+0000,-36.89,-48.96,-34.62,-52.27,-56.56,-55.3
2020/12/24 01:02:29+0000,-39.81,-48.65,-33.99,-52.6,-56.11,-55.09
2020/12/24 01:03:21+0000,-40.45,-50.05,-34.14,-52.26,-55.76,-54.83
2020/12/24 01:04:13+0000,-39.37,-49.55,-33.8,-51.58,-55.88,-54.74
2020/12/24 01:05:05+0000,-37.64,-49.99,-34.27,-52.16,-55.49,-55.62
2020/12/24 01:05:57+0000,-39.51,-49.6,-34.21,-52.28,-55.72,-54.72
2020/12/24 01:06:49+0000,-37.96,-49.15,-33.87,-52.35,-56.17,-55.35
2020/12/24 01:07:41+0000,-39.46,-49.35,-34.51,-52.31,-56.39,-55.59
2020/12/24 01:08:33+0000,-38.13,-49.24,-34.54,-52.16,-55.96,-55.68
2020/12/24 01:09:25+0000,-39.9,-48.75,-33.82,-52.72,-55.8,-55.24
2020/12/24 01:10:18+0000,-40.1,-50.05,-34.12,-50.83,-55.46,-55.46
2020/12/24 01:11:28+0000,-39.89,-48.88,-33.91,-52.48,-55.6,-55.45
2020/12/24 01:12:20+0000,-39.97,-50.06,-33.92,-52.85,-56.04,-55.54
2020/12/24 01:13:12+0000,-39.04,-49.84,-33.79,-52.84,-55.84,-55.04
2020/12/24 01:14:04+0000,-40.3,-48.79,-34.07,-53.2,-56.3,-55.4
2020/12/24 01:14:56+0000,-40.03,-50.21,-33.64,-52.36,-55.63,-55.18
2020/12/24 01:15:48+0000,-39.83,-48.96,-33.82,-52.79,-56.28,-55.67
2020/12/24 01:16:40+0000,-38.61,-48.95,-34.13,-52.6,-55.96,-55.45
2020/12/24 01:17:32+0000,-39.87,-49.42,-33.35,-52.68,-55.85,-55.43
2020/12/24 01:18:24+0000,-40.59,-50.21,-33.88,-53.12,-56.41,-56.03
2020/12/24 01:19:16+0000,-39.96,-49.77,-33.93,-52.3,-56,-55.74
2020/12/24 01:20:08+0000,-37.54,-50.14,-33.48,-51.87,-55.88,-54.99
2020/12/24 01:21:10+0000,-39.85,-49.5,-33.44,-52.41,-56.24,-55.53
2020/12/24 01:22:02+0000,-39.03,-49.42,-34.28,-52.66,-56.51,-55
2020/12/24 01:22:54+0000,-39.17,-49.39,-34.19,-53.68,-56.04,-55.72
2020/12/24 01:23:46+0000,-39.58,-49.59,-33.48,-51.88,-55.99,-55.44
2020/12/24 01:24:38+0000,-39.5,-50.05,-33.96,-53,-55.7,-55.92
2020/12/24 01:25:30+0000,-39.19,-49.59,-33.7,-52.58,-56.11,-55.71
2020/12/24 01:26:22+0000,-39.4,-50.36,-34.31,-52.97,-56.66,-55.4
2020/12/24 01:27:14+0000,-38.89,-50.38,-34.45,-52.72,-55.98,-54.8
2020/12/24 01:28:06+0000,-38.44,-49.53,-33.62,-51.73,-56.39,-55.19
2020/12/24 01:28:58+0000,-39.09,-50.12,-34.01,-53.53,-56.04,-54.86
2020/12/24 01:29:50+0000,-38.92,-50.01,-33.75,-53.04,-56.27,-55.4
2020/12/24 01:30:42+0000,-37.9,-49.75,-33.78,-51.89,-56.17,-54.78
2020/12/24 01:31:43+0000,-38.35,-50.05,-33.91,-52.72,-56.05,-54.89
2020/12/24 01:32:35+0000,-39.62,-50.45,-33.77,-53.28,-56.44,-55.76
2020/12/24 01:33:27+0000,-38.06,-49.73,-33.39,-52.54,-55.7,-54.98
2020/12/24 01:34:19+0000,-38.04,-49.94,-33.68,-52.54,-56.01,-55.07
2020/12/24 01:35:11+0000,-37.68,-50.14,-33.33,-52.5,-56.01,-55.32
2020/12/24 01:36:03+0000,-38.58,-49.29,-33.22,-53.79,-56.35,-55.01
2020/12/24 01:36:55+0000,-37.84,-49.81,-33.29,-53.32,-56.27,-55.1
2020/12/24 01:37:47+0000,-38.38,-49.76,-34.03,-53.68,-56.38,-54.82
2020/12/24 01:38:39+0000,-34.61,-50.3,-32.85,-52.9,-56.07,-55.11
2020/12/24 01:39:31+0000,-37.9,-48.69,-33.79,-52.68,-56.54,-55.58
2020/12/24 01:40:23+0000,-38.54,-49.42,-34.1,-53.17,-56.37,-55
2020/12/24 01:41:23+0000,-38.49,-50.29,-33.64,-52.67,-56.37,-55.49
2020/12/24 01:42:15+0000,-38.91,-49.26,-33.22,-52.44,-56.21,-55.31
2020/12/24 01:43:07+0000,-38.46,-50.8,-33.19,-52.37,-56.66,-55.55
2020/12/24 01:43:59+0000,-38.52,-49.68,-33.1,-52.81,-56.22,-55.65
2020/12/24 01:44:51+0000,-38.14,-50.91,-33.08,-52.59,-56.19,-55.35
2020/12/24 01:45:43+0000,-38,-50.63,-33.45,-52.57,-56.71,-55.75
2020/12/24 01:46:36+0000,-38.63,-50.4,-33.59,-52.82,-55.96,-54.81
2020/12/24 01:47:28+0000,-38.57,-50.11,-33.19,-52.56,-55.64,-54.92
2020/12/24 01:48:20+0000,-38.28,-50.4,-33.11,-51.01,-55.4,-55.47
2020/12/24 01:49:12+0000,-39.53,-50.15,-33.47,-51.81,-55.31,-55.28
2020/12/24 01:50:04+0000,-39.34,-49.89,-32.98,-49.93,-56.05,-54.85
2020/12/24 01:51:04+0000,-39.28,-50.52,-33.21,-51.55,-55.62,-54.96
2020/12/24 01:51:56+0000,-39.61,-50.08,-32.55,-51.39,-55.55,-54.57
2020/12/24 01:52:48+0000,-40.16,-50.35,-33.32,-52.03,-56.21,-54.66
2020/12/24 01:53:40+0000,-40.14,-50.44,-33.23,-51.17,-55.23,-54.56
2020/12/24 01:54:32+0000,-40.05,-50.5,-32.85,-52,-55.87,-55.11
2020/12/24 01:55:24+0000,-40.02,-50.2,-32.71,-52.19,-55.65,-54.72
2020/12/24 01:56:16+0000,-39.9,-49.99,-32.64,-52.14,-55.72,-54.72
2020/12/24 01:57:08+0000,-40.47,-49.49,-32.75,-52.9,-55.31,-54.94
2020/12/24 01:58:00+0000,-40.31,-49.43,-33.5,-51.89,-55.07,-54.89
2020/12/24 01:58:52+0000,-40.31,-49.48,-32.86,-48.84,-55.73,-54.97
2020/12/24 01:59:45+0000,-40.47,-49.16,-33.12,-52.2,-55.81,-54.1
2020/12/24 02:00:37+0000,-40.07,-50.56,-32.78,-51.7,-55.49,-54.76
2020/12/24 02:01:36+0000,-39.74,-50.16,-33.47,-52.77,-55.06,-54.88
2020/12/24 02:02:29+0000,-41.05,-49.63,-32.38,-52.11,-55.17,-54.68
2020/12/24 02:03:21+0000,-39.25,-49.67,-32.78,-52.23,-55.67,-55.24
2020/12/24 02:04:13+0000,-39.83,-50.64,-33.56,-52.02,-55.17,-54.68
2020/12/24 02:05:05+0000,-40.27,-50.62,-33.2,-52.05,-54.72,-55.24
2020/12/24 02:05:57+0000,-39.68,-49.69,-33.29,-52.68,-54.34,-55.33
2020/12/24 02:06:49+0000,-39.94,-49.74,-32.62,-52.61,-54.57,-55.54
2020/12/24 02:07:41+0000,-39.34,-48.71,-32.36,-52.13,-54.9,-55.56
2020/12/24 02:08:33+0000,-38.61,-49.22,-32.96,-51.7,-54.56,-55.41
2020/12/24 02:09:25+0000,-39.45,-49.79,-33.7,-52.41,-55.2,-54.9
2020/12/24 02:10:17+0000,-38.75,-49.63,-32.88,-51.21,-54.12,-55.04
2020/12/24 02:11:17+0000,-39.14,-49.87,-33.76,-52.05,-54.24,-55.18
2020/12/24 02:12:09+0000,-39.23,-50.62,-33.65,-52.33,-53.92,-54.99
2020/12/24 02:13:01+0000,-38.59,-49.6,-33.74,-52.4,-53.45,-55.27
2020/12/24 02:13:53+0000,-39.46,-50.45,-33.04,-51.87,-52.9,-55.33
2020/12/24 02:14:45+0000,-39.54,-49.74,-33.44,-52.35,-53.88,-55.25
2020/12/24 02:15:37+0000,-39.45,-46.77,-33.34,-52.53,-53.31,-55.26
2020/12/24 02:16:29+0000,-38.54,-49.71,-33.26,-52.31,-53.5,-55.52
2020/12/24 02:17:21+0000,-36.03,-46.97,-33.39,-47.45,-53.59,-55.29
2020/12/24 02:18:13+0000,-36.8,-45.23,-33.29,-48.17,-53.77,-55.57
2020/12/24 02:19:05+0000,-37.88,-48.88,-33.09,-46.84,-52.24,-55.27
2020/12/24 02:19:58+0000,-34.98,-48.27,-34.13,-47.48,-52.66,-55.2
2020/12/24 02:20:50+0000,-36.63,-45.92,-33.49,-46.77,-53.01,-55.35
2020/12/24 02:21:50+0000,-37.58,-45.8,-33.82,-47.57,-52.49,-54.94
2020/12/24 02:22:42+0000,-37.5,-45.06,-33.13,-47.14,-52.97,-55.31
2020/12/24 02:23:34+0000,-37.66,-47.83,-32.91,-46.84,-53.3,-55.02
2020/12/24 02:24:26+0000,-36.77,-47.75,-33.23,-45.87,-53.1,-55.24
2020/12/24 02:25:18+0000,-35.41,-47.78,-33.1,-46.99,-53.53,-54.94
2020/12/24 02:26:10+0000,-34.25,-48.42,-33.11,-46.01,-52.99,-55.08
2020/12/24 02:27:02+0000,-34.96,-48.53,-32.92,-45.49,-53.11,-55.33
2020/12/24 02:27:54+0000,-36.1,-47.78,-33.01,-45.66,-53.02,-54.83
2020/12/24 02:28:46+0000,-37.31,-45.91,-33.3,-46.61,-55.46,-55.05
2020/12/24 02:29:38+0000,-36.92,-48.02,-33.15,-46.67,-52.84,-54.71
2020/12/24 02:30:30+0000,-37.74,-48.29,-33.63,-47.19,-52.88,-55.35
2020/12/24 02:31:30+0000,-37.36,-48.6,-33.37,-46.12,-52.29,-55.15
2020/12/24 02:32:22+0000,-36.87,-47.87,-34.08,-45.44,-53.12,-55.76
2020/12/24 02:33:14+0000,-35.95,-48.33,-33.37,-45.03,-52.3,-54.8
2020/12/24 02:34:06+0000,-36.67,-47.64,-33.72,-45.58,-53.19,-54.88
2020/12/24 02:34:58+0000,-35.95,-48.09,-33.17,-46.11,-52.12,-54.55
2020/12/24 02:35:50+0000,-36.23,-48.72,-32.8,-46.17,-53.31,-55.47
2020/12/24 02:36:42+0000,-36.7,-47.48,-33.37,-45.66,-53.19,-54.9
2020/12/24 02:37:34+0000,-35.73,-48.15,-32.9,-45.43,-54.38,-55.07
2020/12/24 02:38:26+0000,-36.04,-48.48,-33.24,-44.46,-54.39,-55.31
2020/12/24 02:39:18+0000,-35.71,-47.99,-33.14,-45.22,-55.06,-55.34
2020/12/24 02:40:11+0000,-35.43,-48.73,-32.57,-44.67,-54.88,-55.14
2020/12/24 02:41:10+0000,-35.85,-46.94,-33.04,-44.99,-55.67,-54.84
2020/12/24 02:42:02+0000,-36.27,-48.12,-33.52,-45.2,-54.92,-55.34
2020/12/24 02:42:54+0000,-36.25,-48.24,-33.26,-44.6,-55.05,-55.53
2020/12/24 02:43:46+0000,-35.43,-48.06,-33.92,-44.93,-54.22,-55.02
2020/12/24 02:44:38+0000,-36.08,-47.47,-34.24,-44.07,-54.81,-55.47
2020/12/24 02:45:30+0000,-36.07,-48.51,-33.6,-44.46,-54.76,-55.34
2020/12/24 02:46:22+0000,-35.64,-48.09,-32.85,-44.14,-55.08,-55.17
2020/12/24 02:47:14+0000,-36.32,-48.55,-33.67,-43.65,-54.58,-55.21
2020/12/24 02:48:06+0000,-36.33,-49.15,-33.25,-45.47,-55.12,-54.98
2020/12/24 02:48:59+0000,-36.85,-48.23,-33.43,-45.43,-55.34,-55.05
2020/12/24 02:49:51+0000,-36.37,-48.93,-32.72,-45.51,-55.55,-54.71
2020/12/24 02:50:43+0000,-38.73,-50.21,-33.47,-52.4,-54.77,-55.53
2020/12/24 02:51:44+0000,-38.86,-50.36,-33,-52.66,-54.92,-55.6
2020/12/24 02:52:36+0000,-38.64,-50.19,-32.8,-53.19,-55.66,-55.42
2020/12/24 02:53:28+0000,-38.13,-49.44,-32.73,-52.42,-55.53,-54.94
2020/12/24 02:54:20+0000,-38.75,-49.67,-33.04,-53.21,-55.87,-55.39
2020/12/24 02:55:12+0000,-38.36,-50.36,-33.24,-52.85,-55.17,-55.11
2020/12/24 02:56:04+0000,-38.72,-50.73,-33.33,-52.2,-55.37,-55.45
2020/12/24 02:56:56+0000,-38.57,-49.97,-33.59,-53.9,-55.13,-54.86
2020/12/24 02:57:48+0000,-38.88,-48.86,-33.5,-53.06,-55.1,-55.18
2020/12/24 02:58:40+0000,-39.11,-49.85,-33.25,-52.51,-54.9,-54.78
2020/12/24 02:59:32+0000,-38.65,-50.09,-33.68,-52.48,-54.89,-54.59
2020/12/24 03:00:24+0000,-38.25,-49.85,-33.32,-52.23,-54.64,-54.83
2020/12/24 03:01:24+0000,-38.73,-49.47,-33.11,-52.17,-55.26,-55.09
2020/12/24 03:02:16+0000,-39.18,-50.09,-33.62,-52.76,-55.34,-55.14
2020/12/24 03:03:08+0000,-39.01,-50.25,-32.89,-52.47,-52.87,-54.29
2020/12/24 03:04:00+0000,-38.91,-49.92,-33.4,-52.79,-55.98,-55.34
2020/12/24 03:04:52+0000,-38.53,-49.56,-32.82,-52.98,-55.46,-54.87
2020/12/24 03:05:44+0000,-39.69,-50.06,-33.65,-53.07,-55.04,-54.72
2020/12/24 03:06:36+0000,-38.44,-50.43,-32.72,-54.02,-52.75,-55.04
2020/12/24 03:07:28+0000,-39.5,-50.45,-34,-53.95,-53.46,-55.03
2020/12/24 03:08:20+0000,-39.52,-49.55,-33.26,-52.93,-54.74,-55.09
2020/12/24 03:09:12+0000,-38.74,-49.83,-33.29,-52.4,-54.19,-55.08
2020/12/24 03:10:05+0000,-39.13,-49.48,-33.61,-53.28,-54.76,-54.5
2020/12/24 03:11:04+0000,-39.35,-49.43,-33.47,-52.94,-54.58,-55.41
2020/12/24 03:11:56+0000,-39.59,-48.43,-33.01,-52.61,-54.83,-55.38
2020/12/24 03:12:49+0000,-39.95,-49.42,-33.62,-52.66,-54.67,-55
2020/12/24 03:13:41+0000,-38.14,-49.74,-33.53,-52.49,-54.42,-54.7
2020/12/24 03:14:33+0000,-39.55,-49.79,-33.02,-52.44,-55.01,-55.13
2020/12/24 03:15:25+0000,-39.01,-49.37,-33.36,-52.52,-55.11,-55.02
2020/12/24 03:16:17+0000,-39.04,-50,-32.93,-52.86,-55.33,-55.2
2020/12/24 03:17:09+0000,-37.8,-50.15,-33.02,-52.71,-54.82,-55.03
2020/12/24 03:18:01+0000,-38.87,-49.25,-33.33,-52.64,-55.28,-55.57
2020/12/24 03:18:53+0000,-39.2,-49.59,-32.86,-52.2,-55.25,-54.46
2020/12/24 03:19:45+0000,-38.89,-50,-33.17,-51.87,-54.48,-54.74
2020/12/24 03:20:37+0000,-38.46,-49.4,-32.93,-52.52,-54.91,-55.66
2020/12/24 03:21:37+0000,-37.98,-50.3,-33.44,-52.06,-54.76,-55.65
2020/12/24 03:22:29+0000,-39.07,-49.67,-33,-52.02,-55.08,-55.04
2020/12/24 03:23:21+0000,-39.17,-49.35,-33.08,-52.03,-55.29,-55.33
2020/12/24 03:24:13+0000,-38.71,-49.38,-33.2,-52.08,-55,-54.64
2020/12/24 03:25:05+0000,-38.95,-49.78,-32.79,-52.8,-55.11,-54.93
2020/12/24 03:25:57+0000,-39.42,-48.89,-33.15,-53.4,-54.99,-54.62
2020/12/24 03:26:49+0000,-38.72,-49.6,-32.53,-52.45,-55.14,-55.38
2020/12/24 03:27:41+0000,-37.82,-49.36,-33.39,-52.51,-55.14,-54.17
2020/12/24 03:28:33+0000,-38.67,-49.09,-33.45,-52.21,-55.33,-55.03
2020/12/24 03:29:25+0000,-38.76,-49,-33.94,-52.82,-55.27,-55.03
2020/12/24 03:30:18+0000,-38.98,-49.11,-33.21,-52.48,-55.54,-54.87
2020/12/24 03:31:18+0000,-39.02,-49.58,-32.84,-52.53,-54.82,-54.6
2020/12/24 03:32:10+0000,-38.61,-49.43,-33.21,-52.39,-55.03,-54.88
2020/12/24 03:33:02+0000,-38.75,-49.92,-32.95,-52.34,-55.08,-55.22
2020/12/24 03:33:54+0000,-39.36,-49.18,-32.52,-52.28,-54.92,-55.04
2020/12/24 03:34:46+0000,-38.49,-49.79,-33.17,-52.4,-55.55,-55.07
2020/12/24 03:35:38+0000,-38.79,-49.36,-32.85,-53.2,-54.76,-54.72
2020/12/24 03:36:30+0000,-39.05,-48.6,-33.01,-53.01,-54.89,-54.85
2020/12/24 03:37:22+0000,-38.55,-48.92,-33.39,-53.25,-55.25,-54.61
2020/12/24 03:38:14+0000,-37.97,-49.14,-32.93,-52.75,-54.73,-54.84
2020/12/24 03:39:06+0000,-39.18,-49.24,-33.23,-52.66,-55.15,-54.51
2020/12/24 03:39:59+0000,-38.86,-48.23,-33.27,-52.33,-55.33,-55.25
2020/12/24 03:40:51+0000,-38.53,-47.8,-33.67,-53.05,-55,-54.66
2020/12/24 03:41:52+0000,-39.03,-47.78,-33.61,-52.17,-54.79,-54.52
2020/12/24 03:42:44+0000,-38.22,-48.41,-33.1,-51.98,-54.69,-54.69
2020/12/24 03:43:36+0000,-39,-47.67,-33.53,-52.37,-55.04,-54.63
2020/12/24 03:44:28+0000,-38.12,-47.19,-33.54,-52.75,-54.44,-55.51
2020/12/24 03:45:20+0000,-38.28,-48.16,-33,-53.25,-54.63,-54.41
2020/12/24 03:46:12+0000,-38.12,-49.07,-33.79,-52.9,-54.56,-55.63
2020/12/24 03:47:04+0000,-38.64,-47.77,-33.74,-52.45,-53.91,-54.66
2020/12/24 03:47:56+0000,-38.75,-48.01,-33.4,-52.84,-54.64,-55.05
2020/12/24 03:48:48+0000,-37.6,-48.06,-33.51,-52.47,-54.45,-55.16
2020/12/24 03:49:40+0000,-38.5,-47.34,-33.17,-52.16,-55.25,-55.3
2020/12/24 03:50:32+0000,-39.35,-48.36,-33.38,-51.51,-54.39,-55.47
2020/12/24 03:51:33+0000,-39.8,-48.78,-33.29,-52.4,-53.97,-55
2020/12/24 03:52:25+0000,-38.55,-46.94,-33.72,-52.43,-53.69,-54.91
2020/12/24 03:53:17+0000,-38.73,-47.62,-33.58,-52.4,-54.25,-55.05
2020/12/24 03:54:09+0000,-38.71,-47.49,-33.05,-52.57,-54.44,-54.71
2020/12/24 03:55:01+0000,-38.37,-48.46,-34.03,-52.24,-55.24,-54.92
2020/12/24 03:55:53+0000,-38.55,-48.02,-34.02,-52.83,-54.67,-55.72
2020/12/24 03:56:45+0000,-39.46,-48.11,-33.02,-51.75,-54.25,-54.79
2020/12/24 03:57:37+0000,-39.25,-47.71,-33.6,-51.96,-53.64,-54.9
2020/12/24 03:58:29+0000,-38.75,-47.6,-33.68,-52.7,-54.94,-55.38
2020/12/24 03:59:22+0000,-39.51,-48.08,-33.29,-53.06,-53.69,-55.08
2020/12/24 04:00:14+0000,-38.94,-48.18,-32.98,-52.3,-53.34,-55.29
2020/12/24 04:03:11+0000,-39.73,-47.11,-33.43,-51.86,-54.24,-54.48
2020/12/24 04:04:03+0000,-38.96,-47.68,-33.09,-51.87,-54.22,-54.62
2020/12/24 04:04:55+0000,-39.71,-47.54,-33.46,-52.48,-54.14,-55.09
2020/12/24 04:05:47+0000,-38.87,-47.47,-32.63,-51.51,-54.36,-54.48
2020/12/24 04:06:39+0000,-39.66,-47.74,-32.86,-52.43,-54.7,-55.2
2020/12/24 04:07:31+0000,-39.5,-47.67,-33.09,-52.04,-53.41,-55.67
2020/12/24 04:08:23+0000,-38.51,-47.67,-33.31,-52.1,-54.48,-55.22
2020/12/24 04:09:15+0000,-38.32,-48.44,-33.06,-52.81,-54.39,-54.69
2020/12/24 04:10:08+0000,-39.07,-47.83,-32.15,-52.87,-54.32,-54.45
2020/12/24 04:11:08+0000,-39.69,-47.44,-32.78,-52.22,-54.86,-54.95
2020/12/24 04:12:00+0000,-40.04,-47.12,-33.51,-53.23,-54.48,-55.06
2020/12/24 04:12:52+0000,-39.35,-47.07,-33.5,-52.53,-54.64,-54.99
2020/12/24 04:13:44+0000,-38.85,-47.51,-33.11,-52.28,-55.2,-55.12
2020/12/24 04:14:36+0000,-38.93,-47.17,-32.47,-51.8,-52.97,-55.3
2020/12/24 04:15:28+0000,-37.76,-47.25,-32.96,-52.73,-54.65,-55.23
2020/12/24 04:16:20+0000,-39.23,-46.94,-33.17,-52.4,-53.67,-55.15
2020/12/24 04:17:12+0000,-39.31,-47.36,-32.65,-52.76,-53.05,-55.18
2020/12/24 04:18:04+0000,-38.73,-47.58,-33.14,-52.58,-53.16,-55.52
2020/12/24 04:18:56+0000,-38.25,-46.66,-32.93,-52.09,-52.91,-54.89
2020/12/24 04:19:48+0000,-39.25,-47.87,-33.49,-52.67,-53.39,-54.4
2020/12/24 04:20:40+0000,-38.6,-47.83,-32.57,-52.67,-54.06,-54.87
2020/12/24 04:21:40+0000,-39.22,-47.3,-32.6,-52.58,-54.66,-55.21
2020/12/24 04:22:32+0000,-39.33,-47.75,-32.86,-52.61,-54.76,-54.91
2020/12/24 04:23:25+0000,-39.79,-47.44,-32.33,-52.78,-54.67,-54.77
2020/12/24 04:24:17+0000,-39.46,-48.15,-33.03,-52.84,-55.65,-55.02
2020/12/24 04:25:09+0000,-40.41,-47.44,-33.24,-52.95,-55.08,-54.96
2020/12/24 04:26:01+0000,-38.57,-47.53,-32.95,-51.95,-54.73,-54.84
2020/12/24 04:26:53+0000,-38.98,-46.78,-33,-51.46,-54.78,-54.59
2020/12/24 04:27:45+0000,-39.14,-46.97,-33.43,-52.63,-54.69,-54.59
2020/12/24 04:28:37+0000,-38.95,-47.66,-33.42,-52.13,-54.64,-54.35
2020/12/24 04:29:29+0000,-39.29,-47.85,-32.59,-52.63,-55.79,-55.2
2020/12/24 04:30:21+0000,-37.73,-47.83,-32.47,-51.36,-54.51,-55.04
2020/12/24 04:31:21+0000,-38.23,-48.35,-32.68,-52.23,-55.02,-55.41
2020/12/24 04:32:13+0000,-38.81,-47.32,-32.81,-52.42,-54.86,-54.45
2020/12/24 04:33:05+0000,-38.89,-47.51,-32.49,-53.54,-55.21,-55.28
2020/12/24 04:33:57+0000,-37.87,-46.84,-32.69,-53.03,-54.88,-55.39
2020/12/24 04:34:49+0000,-38.27,-48.27,-32.96,-52.07,-55.24,-55.08
2020/12/24 04:35:41+0000,-39.5,-47.7,-33.63,-52.35,-54.9,-54.51
2020/12/24 04:36:33+0000,-38.43,-47.64,-32.7,-52.57,-54.99,-55.01
2020/12/24 04:37:25+0000,-37.71,-47,-32.8,-52.39,-55.18,-55.09
2020/12/24 04:38:17+0000,-38.49,-48.11,-32.91,-52.01,-54.59,-55.06
2020/12/24 04:39:09+0000,-37.51,-47.55,-33.15,-51.89,-54.7,-55.12
2020/12/24 04:40:01+0000,-39.02,-47.66,-32.56,-52.76,-54.54,-55.17
2020/12/24 04:41:01+0000,-39.12,-47.82,-33.47,-52.8,-54.53,-54.87